Regional Weather Roundup
Issued by NWS Upton, NY

Current Version | Previous Version | Graphics & Text | Print | Product List | Glossary Off
Versions: 1 2 3 4 5 6 7 8 9 10 11 12 13 14 15 16 17 18 19 20 21 22 23 24 25 26 27 28 29 30 31 32 33 34 35 36 37 38 39 40 41 42 43 44 45 46 47 48 49 50

000
ASUS41 KOKX 031808
RWROKX

REGIONAL WEATHER ROUNDUP
NATIONAL WEATHER SERVICE NEW YORK NY
100 PM EST SAT DEC 03 2016

NOTE: "FAIR" INDICATES FEW OR NO CLOUDS BELOW 12,000 FEET WITH NO
SIGNIFICANT WEATHER AND/OR OBSTRUCTIONS TO VISIBILITY.

NYZ071-072-176-178-NJZ106-104-031900-
NEW YORK CITY METRO AREA

CITY           SKY/WX    TMP DP  RH WIND       PRES   REMARKS
Central Park   PTSUNNY   47  25  42 NW14G23   30.05S
Wall St Helipt PTCLDY    50  29  44 VRB6      30.04S
Bronx Bot Gard   N/A     46  27  46 NW14      30.02F
LaGuardia APRT PTSUNNY   49  28  44 NW23G30   30.03R
Kennedy INTL   PTSUNNY   48  25  40 NW22      30.04R
Breezy Point     N/A     46 N/A N/A NW17G25     N/A
Newark/Liberty MOSUNNY   50  26  39 W20G30    30.04R
Teterboro      SUNNY     47  26  44 NW17G26   30.03S
$$

NYZ177-179-078>081-031900-
LONG ISLAND NEW YORK

CITY           SKY/WX    TMP DP  RH WIND       PRES   REMARKS
Jones Beach      N/A     45 N/A N/A NW23G33     N/A
Matinecock PT  NOT AVBL
Farmingdale    PTSUNNY   47  25  42 NW14G28   30.01S
MacArthur/ISP  PTSUNNY   46  26  45 NW18G29   29.99R
Shirley        CLOUDY    46  28  49 NW15G23   29.99R
Westhampton    PTSUNNY   48  26  42 NW21G30   29.98R
Southampton      N/A     46  32  57 NW12      29.93R
Bridgehampton  NOT AVBL
East Hampton     N/A     46  26  47 NW17G31   29.94S
Montauk          N/A     47  28  47 NW16G33   29.94R
$$

NYZ052-065-067-031900-
HUDSON VALLEY

CITY           SKY/WX    TMP DP  RH WIND       PRES   REMARKS
White Plains   PTSUNNY   44  25  47 W15G25    29.99S
Newburgh       PTSUNNY   43  28  56 NW18G31   30.02R
Montgomery     PTSUNNY   45  27  49 NW14G29   30.01S
Poughkeepsie   CLOUDY    43  25  49 NW9       30.00S
Albany         MOSUNNY   42  23  46 NW21G33   30.01R
$$

NJZ001-105-106-008-010-013-015-019>022-104-031900-
NEW JERSEY

CITY           SKY/WX    TMP DP  RH WIND       PRES   REMARKS
Newark/Liberty MOSUNNY   50  26  39 W20G30    30.04R
Teterboro      SUNNY     47  26  44 NW17G26   30.03S
Caldwell       PTSUNNY   47  25  42 NW14G26   30.05R
Somerville     PTSUNNY   48  27  44 NW16G24   30.04F
Linden         MOCLDY    48  26  43 NW16G28   30.05S
Sussex         CLOUDY    44  27  51 NW8       30.05S
Andover          N/A     44  26  49 NW10G20   30.05S
Trenton        CLOUDY    49  27  42 NW13G20   30.07F
Millville      MOSUNNY   50  32  50 NW21G30   30.10F
Atlantic City  MOSUNNY   52  28  39 NW25G32   30.07F
Wrightstown    PTSUNNY   48  28  46 NW20G25   30.05F
Toms River     MOSUNNY   49  27  42 NW20G32   30.06S
Belmar         MOSUNNY  N/A N/A N/A NW18G32   30.05S
$$

PAZ047>061-062-071-031900-
EASTERN PENNSYLVANIA

CITY           SKY/WX    TMP DP  RH WIND       PRES   REMARKS
Philadelphia   PTSUNNY   50  27  40 NW14G25   30.11F
Allentown      CLOUDY    48  27  44 NW14      30.08F
Scranton       CLOUDY    42  28  57 NW12      30.08S
$$

CTZ002-004>006-009-010-012-RIZ004-006-007-MAZ004-011-015-031900-
SOUTHERN NEW ENGLAND
 IN CT

CITY           SKY/WX    TMP DP  RH WIND       PRES   REMARKS
Bradley INTL   PTSUNNY   45  25  45 NW16G25   29.96S
Hartford       MOSUNNY   44  25  47 NW18G26   29.97R
Danbury        PTSUNNY   43  24  47 NW10G24   29.99S
Wtrbury/Oxford PTSUNNY   41  25  52 N12G23    29.98R
Bridgeport     MOSUNNY   49  26  41 NW16G22   29.98R
Meriden        CLOUDY    45  25  45 NW14G25   29.97S
New Haven      NOT AVBL
Chester        MOCLDY    43  25  49 NW14G24   29.95R
Groton         SUNNY     49  27  42 NW21G32   29.92S
Wilimantic     PTSUNNY   44  26  49 NW16G30   29.95R

 IN RI

CITY           SKY/WX    TMP DP  RH WIND       PRES   REMARKS
Providence     PTSUNNY   47  25  42 N20G28    29.89F
Block Island   MOSUNNY   46  29  51 NW15G23   29.91S
Westerly       SUNNY     47  24  40 NW12G26   29.91S
 IN MA

CITY           SKY/WX    TMP DP  RH WIND       PRES   REMARKS
Boston         PTSUNNY   43  27  53 NW20G31   29.88R
Worcester      CLOUDY    37  24  59 W18G30    29.88R WCI  27
Westfield      CLOUDY    42  25  50 NW12      29.95S
Provincetown   PTSUNNY   46  30  53 NW21G28   29.85S
Nantucket      PTSUNNY   46  27  47 NW21G26   29.85S
$$

ANZ330-335-338-340-345-350-353-355-031900-
COASTAL MARINE OBSERVATIONS


STATION/POSITION TIME  SKY/WX   TEMP    WIND        PRES    VSBY  WAVE
                                AIR SEA DIR/SP/G                  HT/PER
                 (UTC)          (F)     (DEG/KT/KT) (MB)    (MI)  (FT/S)
NY HARB ENTRANCE 1650            46 54  310/ 19/ 27 1016.4          3/ 4
20 S FIRE ISLAND 1650            45 54  310/ 21/ 27 1015.4          5/ 6
GREAT SOUTH BAY  1730            44 45                N/A
23 SSW MONTAUK P 1650            46 56  310/ 23/ 29 1013.4          6/ 7
15 E BARNEGAT LI 1730               54                N/A           5/ 5
HUDSON CANYON    1650            47 59              1015.2         10/ 8
KINGS POINT      1730            45 48              1016.7
EXECUTION ROCKS  1745            46     290/ 16/ 21   N/A
CENTRAL LI SOUND NOT AVBL
EASTERN LI SOUND NOT AVBL
ROBBINS REEF     1730            46     320/ 22/ 27 1017.1
$$


>>>>>>>>>>>>>>>>>>>>>>>>>>>> KEY <<<<<<<<<<<<<<<<<<<<<<<<<<<
>                                                          <
>     SKY/WX - Sky Condition/Present Weather               <
>     TMP    - Temperature in Fahrenheit                   <
>     DP     - Dew Point in Fahrenheit                     <
>     RH     - Relative Humidity in Percent                <
>     WIND   - Direction (from) and Speed in MPH           <
>     PRES   - Mean Sea Level Pressure (inches of Hg)      <
>     WCI    - Wind Chill Index                            <
>     VSB    - VISIBILITY IN MILES                         <
>     HX     - HEAT INDEX                                  <
>     TC     - TEMPERATURE IN CELSIUS                      <
>     VRB    - VARIABLE WIND DIRECTION                     <
>                                                          <
>>>>>>>>>>>>>>>>>>>>>>>>>>>> KEY <<<<<<<<<<<<<<<<<<<<<<<<<<<



USA.gov is the U.S. government's official web portal to all federal, state and local government web resources and services.